Location: Poughquag
(41.6090°N, 73.6820°W)
Time: 10:40:58
(UTC-04:00)

A-11 Canister half - Pass Details

Date: 07 June 2020
Orbit: 1527 x 1682 km, 47.3° (Epoch: 06 July)

Event Time Altitude Azimuth Distance (km) Brightness Sun altitude
Rises 03:52:57 0° 189° (S) 4,699 - -13.4°
Exits shadow 03:54:54 - 183° (S) 4,173 10.8 -13.1°
Reaches altitude 10° 03:56:49 10° 176° (S) 3,703 10.6 -12.9°
Maximum altitude 04:03:38 23° 128° (SE) 2,787 10.4 -12.0°
Drops below altitude 10° 04:10:25 10° 80° (E) 3,696 11.9 -11.1°
Sets 04:14:14 0° 67° (ENE) 4,689 13.0 -10.6°
